{"data":{"norad_id":25118,"intl_designator":"1997-084G","name":"ORBCOMM FM06","alt_names":[],"object_type":"PAYLOAD","status":"ACTIVE","operator":null,"country":"ORB","launch_date":"1997-12-23","launch_site_code":"ERAS","launch_vehicle":null,"mission":null,"orbit_class":"UNKNOWN","rcs_meters":0.5105,"size_class":null,"mass_kg":null,"dimensions":null,"purposes":["comms"],"wikipedia_slug":null,"has_3d_model":false,"image_url":null,"decayed_at":null,"tle_current":{"epoch":"2026-05-25T02:04:33.650112Z","epoch_age_seconds":67919,"freshness":"FRESH","line1":"1 25118U 97084G   26145.08650058  .00000774  00000+0  24784-3 0  9990","line2":"2 25118  45.0120 163.9149 0002273 258.1559 138.6072 14.47495036491041","mean_motion":14.47495036,"eccentricity":0.0002273,"inclination_deg":45.012,"raan_deg":163.9149,"arg_perigee_deg":258.1559,"mean_anomaly_deg":138.6072,"bstar":0.00024784,"rev_number":49104,"period_min":99.48220644537,"perigee_km":732.22523485858,"apogee_km":735.45834041544,"semimajor_km":7111.978787637,"source":"CELESTRAK","updated_at":"2026-05-25T13:38:22.861553Z"}}}